Wind_Speed
16 19 20 20 19 19 18 16 17 17 16 17 17 17 16 15 15 15 15 15 14 14 12 11 11 11 10 10 10 9 9 8 8 7 6 6 5 5 4 3 3 3 2 2 2 2 2 2 3 3 3 3 3 3 3 3 3 3 2 1 1 1 1 1 1 1 1 1 2 2 2 1 1 1 1 2 2 2 2 2 1 1 2 2 2
15 17 20 21 19 19 18 16 17 18 17 18 18 17 17 16 16 16 16 15 15 14 13 12 11 11 11 10 10 10 10 9 9 8 7 6 6 6 4 3 3 3 3 3 2 2 3 2 2 2 2 2 3 3 3 3 2 2 1 1 2 2 1 2 2 1 1 1 2 1 2 3 2 1 2 2 3 2 2 2 2 1 2 2 2
14 16 19 21 20 20 19 17 18 18 18 18 18 18 17 17 16 16 16 16 15 14 13 12 11 10 10 10 10 9 9 10 8 7 7 6 7 7 5 4 3 3 3 3 3 3 3 3 2 2 2 2 2 3 3 3 2 2 1 1 2 2 3 3 2 1 1 2 1 1 2 3 3 2 2 2 3 2 1 3 2 1 3 2 1
14 16 18 20 21 21 19 18 18 18 17 18 19 18 18 17 17 16 16 16 15 15 14 12 11 11 9 9 9 8 7 9 8 7 7 7 7 8 7 5 4 3 4 4 4 4 4 3 3 2 2 2 2 3 3 3 3 2 2 1 1 1 3 3 2 2 2 3 2 1 1 2 2 3 3 2 3 3 2 3 3 1 2 2 1
14 15 16 19 20 20 20 19 18 18 18 18 19 18 18 18 18 17 17 16 16 16 15 13 12 12 10 9 9 8 7 8 9 9 9 9 8 8 8 6 5 4 5 5 4 4 4 4 3 3 3 3 3 3 3 3 3 3 2 2 1 0 2 2 2 1 2 3 3 2 1 2 3 3 3 2 1 4 3 3 3 1 2 2 1
12 14 15 17 20 20 20 20 19 19 18 18 19 18 18 18 19 18 17 16 16 16 17 15 14 13 12 11 11 10 9 9 11 10 10 10 9 8 8 7 6 5 6 5 5 5 5 4 4 3 3 3 3 2 2 3 3 3 3 3 2 0 1 1 1 1 2 2 2 2 2 2 3 3 2 1 1 2 1 3 3 1 2 3 1
12 13 14 16 19 21 21 21 20 20 19 18 18 19 18 18 19 20 18 17 16 17 18 17 15 14 14 13 12 11 11 10 10 10 10 10 9 8 7 7 6 6 6 6 6 5 5 5 4 3 3 3 3 2 2 2 3 3 3 3 2 1 1 1 0 1 1 1 1 1 1 2 3 3 2 2 2 2 1 1 4 2 3 3 2
12 12 14 16 19 20 21 21 21 20 19 19 19 19 19 19 20 20 18 17 17 18 19 18 16 15 15 14 12 12 11 10 10 11 9 8 8 8 7 7 6 6 6 6 6 6 5 5 5 4 3 3 3 3 2 2 2 3 3 3 3 2 2 1 1 1 1 1 1 1 1 2 2 2 2 1 1 2 1 1 3 3 3 4 3
12 13 13 15 18 19 20 21 21 21 20 20 19 19 19 19 20 20 19 18 18 18 19 19 17 16 16 15 13 12 11 10 10 11 10 8 9 8 7 6 6 6 6 5 6 6 6 6 5 5 4 4 4 3 3 2 2 3 3 3 3 3 2 2 2 2 2 1 1 1 1 1 1 1 1 1 1 1 1 2 3 2 2 3 3
11 12 10 11 16 18 19 20 21 21 20 20 19 19 20 20 20 21 20 18 18 19 20 19 18 17 16 16 15 13 11 11 10 11 11 10 9 9 7 7 6 6 6 6 6 6 7 6 6 5 5 5 4 3 3 3 3 3 3 3 3 3 2 3 3 3 3 2 1 1 1 1 0 0 0 1 2 1 2 0 2 2 1 3 3
12 12 12 15 17 18 18 19 20 20 20 20 20 20 20 21 21 22 21 19 19 20 20 19 19 18 17 17 16 15 13 12 11 12 12 11 11 10 8 8 7 7 6 6 6 6 7 7 6 6 5 5 5 4 4 4 4 4 4 4 4 3 3 3 3 3 3 3 3 3 2 2 2 1 0 1 1 1 2 2 2 3 2 2 3
12 13 13 15 16 17 19 20 20 20 20 20 20 20 20 20 21 22 21 20 20 20 20 20 19 18 18 17 17 16 15 14 13 12 12 13 12 11 9 8 8 8 7 6 6 7 7 7 7 7 6 6 5 5 4 4 4 4 4 4 4 4 3 3 4 3 4 5 4 4 3 3 2 2 2 2 1 1 2 2 3 2 1 2 4
11 12 13 13 14 18 20 20 21 21 21 22 21 20 20 20 21 22 22 22 20 20 21 20 20 19 18 18 18 17 16 15 14 13 13 13 13 12 11 10 9 9 8 8 7 7 8 8 8 8 7 7 6 5 5 5 4 4 5 5 4 4 4 4 4 4 4 5 4 3 3 3 2 2 2 1 1 1 0 2 3 2 1 2 3
11 10 11 13 16 19 19 19 21 22 23 23 22 21 20 20 21 22 22 22 21 21 21 21 20 19 19 18 18 17 17 17 15 14 14 13 13 13 12 11 11 11 10 9 8 8 8 8 9 9 8 8 7 7 6 6 6 5 5 5 5 4 4 4 4 4 4 5 4 4 4 4 3 2 2 1 1 1 1 2 3 4 3 1 3
10 11 12 13 17 21 20 19 21 22 24 24 23 22 21 20 21 22 22 22 22 21 21 21 21 20 19 18 18 17 17 17 16 15 14 14 14 14 13 12 11 11 10 9 8 8 8 8 9 9 9 9 9 8 7 7 7 6 6 6 5 5 5 5 4 4 5 4 4 4 4 4 4 3 2 2 1 1 2 2 3 3 3 2 1
1 7 11 13 17 20 20 21 22 22 23 23 23 23 23 22 22 23 23 23 23 23 22 21 21 20 20 19 19 18 17 17 16 15 15 14 14 14 14 13 12 10 10 10 9 9 9 9 9 9 10 10 10 9 9 8 8 7 7 7 7 7 6 5 5 5 5 5 5 4 4 4 4 4 3 2 2 2 2 2 3 3 3 3 2
7 4 3 8 14 19 19 20 21 20 21 21 21 22 23 22 23 23 23 22 23 23 22 22 20 20 20 20 19 19 18 18 17 16 16 15 14 14 14 13 13 12 11 11 10 10 10 9 10 10 10 11 10 10 10 9 8 8 7 8 8 8 6 6 6 5 5 5 5 5 4 4 4 4 4 3 2 3 3 3 3 3 3 3 2
9 8 6 5 9 14 17 18 19 20 21 21 22 22 22 22 22 23 24 23 23 23 22 21 21 20 20 21 21 20 19 18 17 16 16 16 15 15 14 14 14 13 13 12 11 11 10 10 10 10 10 11 11 11 11 10 9 8 8 8 9 8 7 7 7 6 6 6 5 5 4 4 4 4 5 4 3 4 4 4 3 3 3 4 4
10 8 7 5 7 11 13 15 17 18 20 21 23 23 23 22 21 20 21 21 21 20 21 21 21 20 19 20 21 20 19 18 17 17 16 16 16 16 15 15 14 14 14 13 13 11 11 11 11 11 11 12 12 11 11 11 10 10 9 9 9 9 9 9 8 7 7 6 6 6 5 5 4 4 5 5 4 5 5 5 4 3 4 4 5
10 9 8 8 4 6 10 13 16 17 17 18 21 23 23 21 21 19 17 18 17 16 17 19 20 20 19 19 20 20 19 18 17 17 17 17 17 16 16 16 15 14 14 14 15 14 12 12 11 11 11 12 12 12 12 11 11 11 10 9 9 9 10 10 9 9 8 7 6 7 6 6 5 5 5 5 5 5 5 6 5 5 5 5 5
11 10 10 12 13 10 7 3 1 8 15 17 17 19 20 19 20 20 19 20 19 18 18 18 17 18 18 19 19 19 20 19 18 18 18 17 17 17 16 16 15 15 15 15 15 15 14 13 12 12 12 12 12 12 12 12 12 12 11 11 10 9 10 10 10 10 9 8 8 8 8 7 7 7 7 6 6 6 6 6 6 6 7 6 5
12 12 12 14 17 19 19 19 17 12 2 12 16 15 17 19 18 19 22 21 20 20 21 19 17 17 18 19 19 19 20 20 19 19 19 18 17 17 17 16 16 16 16 16 15 15 15 15 14 13 13 13 13 12 12 12 12 13 12 12 11 11 11 11 10 10 10 10 9 9 9 9 8 8 8 8 8 7 7 7 6 6 7 7 6
13 14 14 16 19 20 21 22 22 21 16 3 11 13 13 18 20 19 21 20 19 21 21 20 18 18 19 19 19 19 19 21 21 20 20 19 18 18 17 18 18 17 16 16 16 16 16 16 15 15 14 14 14 13 13 13 13 13 13 13 12 11 11 11 11 11 11 10 10 10 10 9 9 9 9 9 8 8 8 7 7 7 7 8 7
14 15 16 19 21 22 23 23 22 21 21 16 2 6 5 9 17 20 18 17 17 18 18 20 20 20 20 20 20 20 19 20 21 21 20 20 19 18 18 19 19 18 17 17 17 17 16 16 16 16 15 15 15 15 14 14 14 14 14 14 13 12 12 12 12 11 11 11 11 11 10 10 9 9 9 9 9 9 8 8 9 9 9 9 9
15 16 17 19 21 22 22 22 22 20 20 22 14 2 3 4 8 14 17 16 16 16 17 17 18 18 19 20 20 20 20 20 21 21 21 21 20 19 18 19 19 18 18 17 17 17 17 17 18 17 17 17 16 16 15 15 15 15 14 14 14 13 13 12 12 12 11 11 11 11 11 10 10 10 10 10 10 9 10 10 10 9 9 9 9
15 16 15 17 18 21 22 21 22 22 20 21 19 11 2 3 5 7 11 13 13 15 16 16 16 17 17 19 20 20 20 21 21 21 21 21 20 20 19 19 19 19 19 18 18 17 18 19 19 19 18 18 17 17 17 16 16 16 15 15 14 14 14 13 13 12 12 12 12 12 12 11 12 12 11 11 10 10 10 10 11 10 10 10 10
14 14 15 16 16 19 22 21 21 22 21 19 19 18 12 3 3 5 7 9 11 13 15 15 16 16 16 17 18 19 19 20 20 20 20 20 20 20 20 19 19 19 20 20 19 19 19 19 20 19 19 18 18 18 18 18 17 17 16 16 16 15 15 14 14 14 13 13 13 12 12 12 13 13 13 12 11 11 11 12 11 11 11 11 11
14 15 15 16 16 17 20 21 21 21 21 20 19 18 17 12 5 1 4 7 10 13 15 15 16 16 16 16 17 17 18 19 19 19 20 20 20 20 20 20 19 19 20 20 20 20 20 20 20 20 20 19 19 19 19 19 19 18 18 17 17 17 16 16 15 15 14 14 14 14 14 13 13 13 13 13 12 11 11 12 12 11 11 12 12
15 15 15 15 14 16 18 19 20 20 20 20 19 19 18 16 12 8 4 3 5 9 13 15 16 17 17 16 16 16 17 18 19 19 20 20 20 19 20 20 19 19 20 20 20 20 20 20 20 20 21 20 20 20 20 20 20 19 19 19 18 18 18 17 17 16 16 16 15 16 16 15 15 15 16 17 16 15 14 13 12 11 12 13 13
14 14 14 13 14 16 17 18 18 20 20 19 18 19 18 17 16 14 11 9 6 5 9 14 16 18 17 17 17 17 17 18 19 20 20 20 20 20 19 20 21 20 20 20 20 20 21 21 20 21 21 21 22 22 22 23 23 22 20 19 19 19 18 18 18 18 17 17 17 17 17 17 18 19 21 23 22 20 20 19 17 15 13 13 13
14 13 13 13 14 16 17 18 18 18 19 18 18 18 18 17 17 16 15 13 10 7 7 11 14 16 17 17 17 18 19 19 19 20 20 20 20 20 20 20 21 21 21 20 20 21 22 21 21 21 21 22 23 23 24 27 29 28 25 21 19 18 18 18 19 19 19 19 19 19 18 18 19 21 23 24 24 22 22 22 22 21 20 18 16
13 13 13 13 14 16 17 17 17 17 17 18 18 18 18 18 18 18 17 16 13 9 7 7 9 11 15 17 18 17 19 20 20 20 20 20 20 20 21 21 21 22 22 21 21 22 23 23 22 22 22 23 23 24 26 29 32 33 32 28 23 19 19 19 19 19 20 19 19 19 19 18 18 19 20 20 20 21 22 22 23 23 23 23 23
12 12 12 12 13 14 15 16 16 16 17 17 17 18 18 18 18 17 17 17 15 11 8 7 6 8 13 16 17 17 19 20 21 21 20 20 20 21 22 22 22 22 22 22 23 23 23 23 23 23 24 24 24 25 27 31 33 34 35 33 29 24 22 21 20 20 20 20 19 19 19 19 18 18 19 19 19 20 22 23 23 23 23 24 25
11 11 12 13 14 13 14 15 15 15 16 15 15 16 16 16 16 16 15 16 15 12 10 9 7 7 9 12 15 18 20 20 21 21 21 21 21 22 23 22 22 22 22 23 24 23 23 24 24 25 25 25 25 25 27 30 33 34 34 34 33 30 26 24 23 22 21 21 20 20 19 20 19 19 19 19 19 20 20 20 21 22 24 24 25
10 10 11 13 14 14 15 15 15 15 15 15 15 16 16 16 15 15 14 15 15 12 11 10 9 8 9 9 10 14 18 20 20 21 21 22 22 22 23 22 21 21 21 22 23 23 23 24 24 25 25 25 26 26 28 30 32 34 33 33 33 33 29 26 25 25 24 23 22 22 21 21 21 21 21 21 20 19 18 18 18 19 20 21 22
9 10 11 12 12 13 15 15 14 14 14 14 15 16 16 16 15 14 13 14 13 11 11 12 11 10 10 10 10 11 13 15 18 20 22 23 23 23 23 22 21 21 21 21 22 22 23 24 25 25 24 25 26 27 29 31 33 34 33 31 33 33 30 28 26 26 26 25 25 24 24 24 23 23 24 25 24 21 19 18 18 18 18 19 20
10 11 11 11 11 13 14 14 13 13 13 14 15 15 15 15 14 14 14 14 12 10 11 13 12 11 12 12 12 12 11 12 14 17 20 23 24 24 23 21 21 21 21 21 21 21 21 22 23 24 25 26 26 27 29 32 33 33 33 32 33 32 29 27 27 27 27 26 26 26 26 25 25 25 26 27 27 26 23 20 19 19 19 20 20
12 12 12 11 12 14 14 13 13 13 13 14 15 16 15 14 14 14 15 14 12 11 12 13 14 13 13 13 13 13 13 13 13 15 19 21 22 22 20 19 19 21 21 21 21 21 21 21 23 24 26 26 26 26 29 31 33 33 33 34 33 29 25 25 26 27 27 27 28 30 30 29 27 27 28 27 27 27 25 23 21 21 21 21 21
12 14 14 14 14 14 14 13 13 13 13 14 14 15 15 15 14 14 14 14 13 12 13 14 15 15 14 13 12 13 13 13 13 15 17 17 16 16 16 16 17 18 19 20 20 21 21 21 22 23 25 26 26 25 27 30 32 33 33 35 33 28 24 25 25 24 26 26 27 30 33 35 34 33 31 30 29 28 26 23 21 21 22 23 22
10 12 14 16 16 14 13 14 14 14 14 14 13 13 14 15 15 15 14 13 13 14 14 15 15 15 15 14 13 12 12 13 13 13 14 13 12 15 18 18 19 19 19 21 21 21 21 22 22 22 23 25 26 26 26 29 31 32 33 35 34 29 26 26 24 23 24 25 25 26 29 34 38 38 37 36 34 32 30 25 21 21 23 23 20
11 12 13 15 16 15 15 16 14 14 15 14 13 13 13 14 15 15 14 14 14 15 15 15 16 16 16 15 14 13 13 13 13 12 12 12 14 19 24 26 25 23 23 23 23 21 21 22 22 22 23 24 25 25 26 28 31 32 32 34 34 33 30 26 24 23 24 24 25 25 26 29 34 37 38 37 37 37 35 31 26 25 26 24 20
12 12 12 13 15 16 17 17 16 15 15 13 13 14 13 14 14 15 15 16 16 16 16 16 16 17 17 16 15 15 15 14 13 12 13 14 15 18 22 24 23 22 24 26 26 24 23 23 23 23 23 24 25 26 26 28 30 32 33 34 35 35 33 27 23 24 25 25 26 26 26 27 30 32 33 33 33 34 36 36 35 32 31 29 25
14 14 13 13 14 16 18 19 17 16 15 14 14 14 14 14 14 15 16 16 16 16 16 16 16 16 16 16 16 16 15 15 13 12 13 14 14 14 16 18 18 20 23 26 26 24 22 22 24 24 24 24 24 26 28 29 31 32 33 34 35 36 36 31 26 25 26 26 25 25 25 25 27 29 30 30 29 29 32 35 36 35 34 33 31
16 16 15 15 15 16 18 19 18 17 16 15 15 15 16 16 15 15 15 16 16 17 17 17 17 16 16 16 16 16 16 15 15 14 13 14 13 13 14 16 18 20 22 24 24 22 21 22 24 24 26 27 25 25 27 30 33 34 35 35 35 36 36 34 32 29 27 25 24 22 22 22 24 26 28 29 29 30 31 32 33 32 32 33 33
17 18 17 17 17 17 18 20 20 18 17 16 16 16 18 18 16 15 15 15 16 16 16 17 17 17 17 17 17 17 17 16 15 15 14 14 13 13 14 15 17 18 20 23 25 24 23 24 24 23 25 26 24 23 25 27 31 34 35 36 37 36 37 37 36 34 30 26 24 23 21 20 22 25 26 28 29 30 31 31 32 31 30 32 33
17 18 18 18 19 18 18 19 20 19 18 17 17 17 18 19 17 15 15 16 16 16 16 17 17 17 17 17 17 18 17 16 16 16 16 15 14 14 14 14 15 17 19 21 23 24 25 26 26 25 24 24 24 23 23 23 26 30 33 35 36 36 36 36 37 37 35 30 28 27 26 24 24 25 26 28 30 31 31 32 31 31 31 31 30
17 18 19 19 19 19 18 18 20 20 19 17 17 18 19 19 18 17 16 17 17 17 17 17 17 17 17 17 17 17 16 16 16 16 16 15 14 14 15 14 15 17 19 22 23 24 24 23 23 23 22 22 22 24 25 24 23 24 28 31 33 35 35 36 37 38 37 35 32 31 31 32 32 32 31 31 31 30 29 29 30 31 33 33 29
17 18 18 18 18 19 19 19 20 20 20 19 19 19 19 20 19 18 18 18 18 18 18 17 17 17 17 17 17 17 17 17 16 15 15 15 14 14 14 15 15 16 18 21 22 21 20 21 23 23 22 21 21 24 28 28 24 22 22 23 27 33 35 33 29 26 26 30 31 31 32 32 31 31 31 29 28 26 24 23 24 25 28 30 29
18 18 18 18 19 20 20 21 21 21 21 21 21 21 21 20 20 19 18 18 18 17 18 18 18 18 17 16 16 16 17 17 16 15 16 17 18 17 17 17 16 16 18 21 21 19 17 19 21 22 21 22 23 24 24 23 23 24 23 20 20 22 22 22 21 19 22 27 30 31 31 28 24 25 25 24 23 22 21 22 22 21 22 23 24
19 19 19 19 20 21 21 23 23 22 22 22 22 22 21 20 20 19 18 18 18 18 18 18 18 18 17 16 15 15 16 16 16 16 17 18 20 21 22 22 21 21 22 25 27 27 26 24 25 25 25 26 27 27 23 19 20 24 25 23 21 17 15 17 18 18 19 24 30 31 29 25 23 24 23 23 22 22 23 24 23 22 22 22 22
19 20 20 20 21 21 23 25 24 23 23 23 23 23 21 20 20 19 19 19 19 18 18 18 18 17 17 16 15 16 16 17 17 16 16 18 20 22 23 25 26 25 25 24 26 30 32 31 32 34 35 37 38 38 34 30 29 29 27 25 24 20 18 19 19 17 18 26 32 30 24 21 22 24 24 23 23 25 26 26 24 23 23 23 23
Wind_Direction
181 185 187 185 182 181 180 179 181 181 182 181 180 180 181 181 180 180 180 178 175 173 176 181 181 177 178 181 182 183 184 185 186 184 179 171 163 165 163 158 152 146 150 153 151 147 126 110 110 110 112 113 110 115 113 108 107 99 97 101 119 153 160 156 97 49 18 29 29 37 51 72 125 151 190 179 167 151 135 108 82 88 94 100 101
179 182 184 184 182 181 179 180 181 181 181 181 183 183 183 184 184 183 182 182 183 180 179 182 184 182 181 183 184 183 184 189 190 187 184 176 176 181 175 174 170 154 151 153 150 144 133 118 109 114 119 124 128 132 127 122 116 107 120 154 143 133 121 110 96 22 337 43 23 28 83 93 95 130 178 170 161 149 145 123 103 88 84 79 77
181 180 183 183 183 181 180 181 183 183 182 183 186 185 184 186 187 186 185 186 187 184 182 183 184 184 183 184 185 184 186 191 190 187 187 181 181 187 188 191 192 179 167 162 156 147 139 132 129 133 137 144 146 144 146 146 143 151 166 157 154 142 122 105 96 32 5 34 22 28 77 95 93 85 103 138 145 130 143 127 102 69 86 68 18
183 181 183 183 183 183 182 183 183 184 183 184 186 186 187 188 186 187 188 188 189 186 183 182 179 180 181 182 186 188 186 188 189 189 191 189 185 187 193 199 204 201 188 174 164 155 153 151 144 149 162 168 162 156 165 170 167 177 166 143 196 148 125 126 108 67 34 15 2 29 43 75 77 73 93 122 138 131 142 114 88 33 81 61 337
187 184 184 184 184 184 184 184 185 185 185 185 186 187 189 189 187 186 187 188 189 187 183 179 176 177 180 181 186 192 191 191 194 195 195 194 193 192 195 200 208 209 197 186 175 165 166 167 160 163 173 178 176 170 169 171 169 173 168 158 190 17 101 124 122 82 51 27 7 14 19 55 45 36 76 83 122 130 133 101 79 353 64 61 329
192 190 186 185 185 185 185 186 188 189 188 188 187 188 188 187 186 186 187 188 189 188 184 181 179 180 183 186 188 192 196 198 199 200 197 196 198 194 192 195 202 204 199 192 184 178 175 173 174 177 175 180 185 182 169 168 168 167 173 175 176 195 359 62 119 100 60 46 29 42 14 26 29 6 43 76 81 89 106 117 102 34 79 93 66
194 194 191 189 188 187 187 188 191 192 190 189 189 189 187 185 185 186 187 188 188 187 186 185 186 187 189 193 195 194 197 199 201 203 200 198 200 193 189 190 194 198 196 192 189 186 184 179 181 181 177 180 181 182 182 175 162 160 168 172 174 180 281 312 186 103 72 80 86 69 15 10 28 13 32 95 117 77 5 124 95 80 99 94 67
194 196 197 195 190 190 190 189 193 194 190 190 191 190 187 184 185 186 187 187 187 187 187 188 190 191 193 197 199 199 201 197 196 202 201 198 197 192 192 188 186 193 194 192 191 192 193 188 186 184 180 181 181 183 186 178 156 156 164 165 178 198 211 267 303 330 323 124 98 21 22 22 28 39 49 43 80 104 140 108 73 79 88 70 49
197 200 200 200 196 193 193 192 194 195 193 191 191 190 186 184 185 185 187 187 187 187 188 190 192 193 195 198 202 202 204 200 195 200 200 197 196 195 196 190 182 188 194 195 193 197 202 197 192 188 184 184 186 186 176 177 170 161 172 172 179 200 208 239 264 286 286 186 142 318 14 22 13 62 97 91 50 73 121 112 97 106 85 63 27
198 198 191 203 206 199 196 196 197 197 195 192 192 190 185 185 185 185 187 188 187 187 188 191 192 194 198 200 203 203 202 201 198 199 199 199 201 200 200 196 189 190 196 199 197 203 206 201 198 193 190 190 186 185 177 180 184 174 182 183 180 193 201 226 242 255 269 262 236 241 243 228 155 82 266 67 64 32 316 15 96 67 68 80 26
196 195 187 197 204 203 202 201 200 199 197 193 192 191 187 187 186 185 187 187 188 189 189 191 193 196 200 201 203 203 201 199 197 197 197 201 204 204 204 201 198 199 200 201 199 206 208 203 203 198 193 191 184 186 187 185 187 179 182 186 187 197 201 220 239 242 241 243 244 233 227 218 176 168 181 51 37 29 337 327 54 27 360 62 43
194 196 194 197 197 200 204 204 202 199 198 195 194 192 190 189 187 185 187 186 188 190 190 192 195 198 202 203 204 205 204 202 201 200 199 203 206 205 205 203 204 206 205 206 203 205 207 203 205 204 198 195 189 189 191 188 187 180 183 190 192 195 199 215 228 234 228 231 236 229 232 230 200 210 192 164 168 55 358 327 36 32 334 47 44
195 200 198 198 197 201 204 203 201 198 198 198 196 195 192 190 188 186 187 187 188 190 192 193 195 199 201 203 205 206 208 209 207 206 203 205 208 207 206 205 205 207 207 209 208 205 206 205 206 208 206 202 196 191 189 191 193 190 194 200 198 195 200 215 228 236 232 233 238 231 238 243 218 225 231 197 192 149 321 342 11 343 292 68 54
193 206 203 201 201 202 203 204 202 199 198 198 196 196 193 191 190 189 189 189 188 190 192 193 196 199 200 201 204 205 209 212 211 211 209 207 209 210 210 208 207 209 210 209 211 210 209 209 208 211 213 210 206 201 195 194 198 201 205 210 210 202 207 221 231 237 233 233 242 241 247 252 240 224 223 238 254 251 12 18 6 330 317 54 94
186 202 207 211 206 198 196 202 205 202 199 197 196 195 193 192 191 191 191 189 190 191 192 194 197 199 200 201 204 204 207 212 213 214 212 211 211 212 212 214 212 211 210 209 211 212 213 214 212 213 216 216 212 209 204 202 204 207 210 216 220 213 214 227 230 230 230 228 234 245 253 249 248 244 227 233 275 326 8 7 359 341 332 349 91
191 210 207 214 212 199 194 200 204 204 201 199 196 194 194 193 191 192 192 190 192 193 193 196 198 199 201 201 203 204 206 210 212 212 212 212 212 213 213 216 216 213 211 211 212 214 216 215 215 217 218 219 218 215 212 210 209 212 214 218 224 222 218 224 229 228 228 230 230 236 247 246 242 247 245 246 279 317 339 341 336 336 338 334 326
356 328 255 228 216 205 202 204 202 202 203 202 201 198 195 194 192 192 193 193 194 194 195 197 198 199 201 202 203 205 206 209 212 211 212 212 213 214 215 216 219 219 217 216 216 217 217 216 218 219 219 220 221 218 216 214 213 218 222 222 226 227 223 224 231 233 231 231 230 226 234 246 241 241 249 247 251 291 308 309 314 321 324 320 316
1 351 333 288 228 206 204 210 208 203 201 202 202 200 199 199 197 194 193 194 195 196 197 197 198 200 202 203 204 206 209 211 213 213 213 213 212 213 216 217 219 221 222 222 219 218 219 217 217 219 220 221 222 220 217 215 216 223 228 229 231 232 231 231 231 236 238 236 234 232 235 244 241 239 247 247 242 261 280 287 292 290 291 299 309
15 10 356 320 256 218 203 208 213 208 202 203 201 198 199 201 201 201 200 199 198 199 200 198 199 202 204 206 206 206 209 211 212 213 212 213 212 212 215 217 218 220 222 223 220 218 220 218 215 217 220 221 222 221 218 214 216 222 227 230 230 230 235 238 237 237 238 236 234 237 239 243 246 247 253 256 251 255 265 271 274 272 268 275 291
22 21 23 13 320 239 214 211 215 212 206 206 204 200 201 201 199 200 199 200 203 208 210 205 202 204 205 206 207 206 208 210 210 211 211 213 213 213 215 216 217 219 220 221 221 221 222 218 215 215 216 219 220 221 220 217 218 221 226 231 229 227 233 239 241 239 237 236 235 240 243 243 245 247 253 259 255 253 258 262 264 265 264 261 267
20 22 28 27 26 30 32 41 241 226 212 208 207 203 205 204 199 198 195 196 202 207 214 213 208 209 207 205 206 206 207 209 210 210 211 213 214 215 216 216 217 218 219 220 221 221 222 220 218 216 215 216 217 219 221 220 221 222 225 230 230 229 233 238 241 241 241 240 239 243 246 246 248 250 253 256 255 251 249 250 251 251 256 256 251
21 24 30 28 29 33 35 38 33 19 283 211 209 204 206 205 202 201 197 195 196 199 207 210 208 212 213 209 207 206 207 209 210 211 212 214 215 215 215 214 217 219 219 221 221 221 221 221 221 218 216 216 215 218 221 222 224 225 226 229 229 228 232 236 239 240 241 242 241 243 245 246 247 248 251 254 254 251 248 247 246 247 253 255 247
26 28 32 32 30 31 32 34 32 26 23 349 214 210 212 205 198 198 197 196 197 199 201 201 203 210 216 215 212 208 208 209 212 214 215 216 216 215 214 214 216 218 219 222 223 222 222 221 221 220 218 218 218 219 223 223 224 226 227 230 230 228 231 234 236 238 239 241 242 244 245 246 246 246 249 253 254 253 253 254 253 253 257 259 256
32 32 33 34 33 33 30 28 27 24 21 18 348 213 213 186 181 187 195 200 201 203 202 200 203 210 215 217 215 212 211 212 215 218 217 218 217 214 213 214 216 218 219 221 222 222 223 221 222 222 220 221 222 222 225 226 225 227 229 231 232 231 232 233 235 238 239 241 243 245 248 248 249 250 250 252 253 250 248 250 252 252 252 255 256
34 34 33 34 33 33 30 26 25 24 20 19 20 37 175 164 170 182 195 202 203 207 208 206 209 214 215 216 216 215 215 215 217 220 219 219 218 215 213 213 215 217 218 219 219 220 221 221 222 224 223 223 224 224 225 227 227 227 229 231 233 233 233 234 236 238 239 242 244 247 249 249 249 250 250 252 253 250 249 249 250 249 247 249 251
37 35 33 34 32 31 29 26 26 25 22 20 19 24 70 192 207 201 203 208 211 215 216 212 216 219 217 217 217 217 218 217 218 221 222 221 220 218 216 213 214 216 216 217 217 217 220 222 224 226 226 226 226 225 226 227 228 228 228 230 233 234 236 237 238 239 239 241 244 246 248 248 248 249 250 252 252 249 251 251 251 250 247 247 248
39 36 34 33 31 28 26 24 26 25 22 21 19 19 24 45 194 217 230 231 230 230 228 224 223 224 222 221 220 219 220 220 220 222 223 223 222 221 219 216 214 215 215 216 216 217 218 222 225 227 227 227 226 226 227 227 228 228 228 229 231 234 238 239 241 242 241 242 244 246 247 246 245 247 248 250 250 251 252 252 250 250 247 246 248
40 37 33 32 29 26 22 20 21 20 20 20 18 16 15 18 31 295 250 248 244 239 236 234 231 229 227 226 225 222 221 222 222 223 223 223 224 223 222 220 216 215 216 216 217 217 218 222 226 227 228 227 225 226 227 228 229 229 228 228 230 233 236 239 242 243 244 245 247 248 249 248 246 246 244 245 247 248 250 253 251 249 246 246 248
39 36 33 31 28 24 20 18 16 15 17 17 15 13 9 8 11 7 350 318 276 250 243 241 238 237 235 233 229 224 221 222 222 221 221 222 223 223 222 221 219 218 219 219 220 219 220 222 224 225 227 227 226 227 227 226 227 227 228 230 231 233 236 239 241 244 245 246 248 251 252 251 249 246 245 247 252 252 251 253 252 251 249 247 248
37 35 32 28 27 24 19 17 15 13 12 11 9 8 5 4 4 360 358 356 342 292 258 248 243 242 240 237 234 227 223 222 221 219 219 220 221 222 221 220 219 220 221 220 221 222 223 224 224 224 225 225 228 229 228 228 229 228 227 229 232 233 235 237 239 243 245 246 248 251 253 253 251 250 252 257 262 262 259 256 253 250 249 249 250
34 32 30 26 24 21 16 14 13 9 8 7 5 3 1 1 0 357 355 351 345 326 277 256 250 246 241 237 234 231 228 225 221 218 218 218 219 220 221 221 220 221 222 221 222 223 225 227 227 226 226 226 229 229 229 232 236 237 234 231 232 235 235 236 238 241 243 246 249 251 253 254 252 252 256 262 266 266 262 259 256 252 249 247 248
29 27 26 23 21 19 14 9 6 4 5 4 1 360 358 356 354 352 350 348 346 339 311 282 269 260 252 244 236 233 233 230 225 221 218 218 219 220 221 222 223 223 223 222 224 224 226 228 229 230 230 230 231 231 230 235 240 243 243 239 235 236 238 238 239 240 242 245 248 250 251 252 250 247 250 255 262 266 265 261 258 255 253 249 247
24 23 22 18 16 15 11 5 1 359 360 359 359 357 352 349 347 346 346 347 348 345 340 335 316 288 274 262 247 238 236 236 235 231 224 220 219 220 222 224 226 226 225 225 225 225 226 228 229 232 233 233 234 233 232 236 240 244 246 243 239 237 238 240 241 241 242 243 245 247 249 250 250 248 246 245 247 255 263 265 262 259 256 252 250
17 17 16 13 9 7 5 1 358 357 355 354 355 351 345 343 343 344 345 347 347 346 348 349 344 324 301 281 263 250 243 240 240 237 231 226 222 223 225 227 228 227 225 225 227 226 226 227 228 230 232 234 236 235 233 237 241 244 246 245 242 239 238 240 242 242 243 243 243 244 245 247 247 245 243 241 239 242 249 256 259 260 257 254 253
11 8 8 5 2 360 359 355 352 352 352 351 350 346 341 340 341 343 346 346 344 345 347 347 344 340 333 319 295 271 256 248 243 239 235 233 229 226 227 228 229 229 227 226 228 228 227 227 227 229 232 235 237 236 235 236 240 244 246 245 244 241 239 239 241 242 242 243 242 242 243 244 244 242 240 239 239 238 239 242 245 249 251 251 249
359 358 358 356 354 354 353 349 345 345 347 347 346 343 339 337 337 339 344 344 340 341 344 344 341 339 337 332 321 302 281 264 251 242 238 237 235 233 231 229 230 231 231 230 229 229 229 228 228 229 231 236 238 237 236 237 240 243 245 244 244 242 240 239 240 241 241 241 241 241 241 242 243 242 242 242 241 239 239 242 243 243 245 246 245
348 348 347 345 346 347 344 340 338 339 342 342 340 338 336 333 333 334 337 339 338 339 341 339 337 337 335 329 324 318 306 287 268 254 246 242 241 239 237 233 233 235 235 233 231 231 231 230 231 230 230 234 238 237 236 238 240 242 242 242 242 240 238 237 239 240 240 240 240 240 239 241 242 242 243 244 245 243 240 241 244 245 246 247 247
339 338 337 338 341 339 334 332 331 333 338 337 334 334 333 331 332 332 331 332 333 337 340 336 332 331 328 326 325 321 312 300 286 271 259 252 251 251 248 243 239 237 237 238 236 235 235 233 232 232 231 234 238 238 237 238 241 241 240 240 240 237 235 237 238 239 240 240 241 241 240 240 240 242 244 244 245 244 240 237 241 244 246 248 247
333 331 331 333 334 328 323 323 325 328 333 330 328 329 330 330 331 329 325 325 328 332 334 331 328 325 322 320 318 315 310 304 296 285 277 273 271 270 271 272 267 257 250 248 243 240 240 238 235 234 234 235 239 240 238 239 241 241 240 239 237 234 234 236 237 238 240 240 240 242 243 243 243 243 244 243 243 242 238 234 237 241 244 246 247
326 327 328 326 323 319 318 320 322 324 324 322 322 322 322 325 327 324 321 321 322 325 324 321 320 320 318 315 311 309 306 301 295 293 295 295 281 266 264 269 271 268 263 261 255 247 244 242 240 239 237 236 239 241 239 239 241 242 241 238 234 231 232 234 235 237 239 240 240 240 243 246 248 249 248 245 243 242 240 236 234 238 242 244 246
322 326 325 318 314 314 313 313 316 317 315 314 316 314 313 317 318 318 318 318 317 317 315 314 315 316 316 314 311 308 306 300 292 290 294 292 275 260 252 249 249 249 248 254 259 258 254 250 246 244 242 240 240 240 239 239 240 242 243 239 232 229 231 233 234 236 238 240 241 240 240 244 249 252 253 250 246 245 245 241 236 236 240 243 246
319 319 317 312 310 310 308 308 310 310 309 308 307 304 305 307 307 309 314 317 315 312 310 310 310 310 311 313 310 308 306 302 294 287 285 283 275 264 256 252 251 250 247 246 248 250 252 253 251 248 245 244 243 241 240 239 239 241 243 240 236 234 233 231 232 236 238 239 241 241 241 243 247 251 255 254 251 249 248 246 244 243 245 245 245
314 313 313 312 309 306 304 305 306 306 305 304 300 297 296 295 294 298 307 312 311 307 305 305 304 304 305 307 307 306 304 299 292 285 278 276 274 269 262 258 254 251 251 249 247 246 248 251 253 252 249 246 245 243 240 239 238 240 242 242 241 240 237 232 232 237 240 241 243 244 244 245 247 251 254 256 255 253 251 250 250 249 250 251 249
309 309 311 310 306 302 300 300 300 300 300 298 295 292 288 285 286 291 299 304 305 303 301 299 298 299 300 300 301 302 301 297 292 286 277 272 267 261 259 259 255 251 251 251 249 247 247 248 250 252 251 249 246 244 242 240 239 239 241 243 244 245 241 235 234 239 242 244 246 247 248 250 250 252 255 257 258 257 256 256 256 255 254 253 249
305 306 307 305 301 298 296 294 294 295 295 293 290 287 283 281 283 288 293 296 298 297 295 293 293 294 295 297 297 297 297 295 292 287 281 275 268 257 250 252 254 254 254 251 246 242 241 243 245 248 251 251 248 246 245 243 241 241 242 244 245 247 246 240 237 239 243 245 249 251 253 255 255 256 258 259 259 260 260 260 261 260 257 253 247
300 302 303 302 300 297 294 291 290 291 291 289 287 284 281 282 283 284 288 291 292 290 287 287 287 288 290 292 293 293 293 293 292 288 280 273 269 262 253 248 249 251 252 251 248 242 238 239 241 244 249 252 253 254 252 248 245 243 243 244 246 248 248 245 243 244 246 246 249 253 255 257 258 259 259 259 259 261 263 264 262 260 255 250 244
295 297 298 296 294 292 290 288 288 289 289 288 285 283 281 281 281 280 282 287 287 284 281 280 280 282 284 285 286 288 289 290 290 287 279 271 267 261 255 248 245 249 253 255 252 246 242 243 245 248 252 254 253 254 256 255 250 242 240 241 243 245 245 245 244 246 248 248 251 255 257 258 260 260 259 260 260 260 261 261 260 258 253 248 241
293 293 292 290 287 286 286 285 285 286 287 286 284 281 280 280 279 278 279 280 280 278 277 277 277 277 278 279 281 283 285 286 287 286 281 277 275 269 262 255 247 247 254 261 263 259 255 257 261 263 266 266 259 251 251 252 251 246 239 234 237 241 241 238 234 236 243 249 252 256 258 259 260 259 256 256 255 252 248 248 248 249 250 248 243
293 291 289 286 284 284 284 283 283 283 284 283 281 279 278 278 276 275 274 273 273 273 274 275 275 274 274 274 275 278 281 282 284 286 283 281 277 273 270 267 261 253 252 259 270 278 273 267 265 263 262 262 258 253 251 251 254 257 249 234 232 235 226 220 223 234 248 256 255 253 253 253 253 253 251 248 246 243 241 241 239 236 238 239 236
292 290 287 284 282 282 282 282 282 282 281 280 279 277 276 275 274 273 270 268 269 271 272 273 273 272 270 270 271 275 279 282 283 284 284 284 281 275 271 269 268 265 259 256 260 267 270 274 276 272 265 262 261 261 261 259 263 268 260 246 242 233 209 212 236 249 254 259 257 253 249 246 245 248 247 244 242 241 241 243 241 235 232 233 230
292 290 286 283 282 282 281 281 282 282 281 279 278 276 274 272 271 269 267 265 265 268 270 271 270 268 268 268 269 271 276 279 280 281 282 284 285 282 277 273 271 272 271 266 261 262 265 270 274 273 271 271 269 268 268 267 268 272 271 265 260 248 225 227 245 249 244 247 248 246 245 243 241 242 243 242 243 244 243 243 242 238 234 232 231
Height
806 811 814 816 819 822 825 828 831 833 836 838 840 843 845 846 849 850 852 854 856 857 859 860 861 863 864 865 866 867 868 869 870 871 872 873 874 874 875 875 876 876 877 877 878 878 879 879 880 880 881 881 881 881 882 882 883 883 883 883 883 883 883 882 882 882 882 882 882 881 881 880 880 881 880 880 880 880 880 881 881 880 880 880 880
805 809 812 815 818 820 824 826 829 831 834 837 839 841 844 846 848 849 851 853 855 856 858 859 860 862 863 864 865 866 868 869 870 870 871 872 873 874 875 875 876 876 877 877 878 878 879 879 880 880 881 881 882 882 882 882 882 883 883 883 883 882 882 882 883 883 882 881 881 880 880 880 880 879 879 879 879 879 879 879 880 879 879 880 880
804 807 810 812 815 818 822 824 827 830 832 835 837 840 842 844 847 848 850 852 854 856 857 858 860 861 862 863 864 865 867 868 869 870 871 872 873 874 875 875 876 876 876 877 877 878 879 879 880 880 881 881 881 882 882 882 883 883 883 883 882 882 882 882 883 883 882 881 881 882 881 880 881 879 878 878 878 878 878 878 879 878 879 879 879
804 806 807 810 813 816 820 822 825 828 830 833 836 838 840 843 845 847 849 851 853 855 856 858 859 861 862 863 864 865 866 868 869 870 871 871 872 873 874 875 876 876 876 877 877 878 879 879 880 881 881 881 882 882 882 882 883 883 883 883 882 881 882 883 883 883 883 882 882 882 880 880 884 880 877 878 877 877 878 877 878 878 877 879 879
804 805 805 808 811 814 818 821 823 826 828 831 833 836 838 841 843 846 848 850 852 854 855 857 859 860 862 863 864 865 866 867 868 869 870 871 872 872 874 874 875 876 876 877 877 878 879 879 880 881 881 881 881 882 882 882 882 882 883 883 882 882 882 882 883 883 883 883 882 882 882 884 884 879 878 879 877 876 877 877 878 877 877 878 878
802 803 804 806 809 813 816 819 822 824 826 829 831 834 836 839 842 844 847 849 851 853 854 856 857 859 861 862 863 864 865 866 867 868 869 870 871 871 873 874 875 876 876 877 877 877 878 879 879 880 881 881 881 881 882 882 882 882 882 883 883 883 883 883 883 883 883 883 882 882 883 884 882 879 880 881 878 876 876 876 877 876 876 877 877
801 801 802 804 807 810 814 817 819 822 824 827 830 832 834 837 840 842 845 847 849 851 853 855 856 858 859 860 862 863 864 865 866 867 868 869 870 871 872 873 874 875 876 876 877 877 878 878 879 880 880 881 881 881 881 881 881 882 882 883 883 883 884 883 883 883 883 883 882 882 882 881 881 881 881 881 881 880 877 875 875 875 875 875 875
799 801 801 801 805 808 811 815 817 820 822 825 827 830 833 835 838 840 843 845 847 850 851 853 855 856 858 859 861 862 862 864 866 867 868 869 870 871 872 873 874 874 876 876 876 877 877 878 878 879 879 880 881 881 881 881 881 882 882 883 883 883 884 884 883 883 882 882 882 882 882 882 882 881 880 880 881 881 878 875 875 875 874 875 875
796 799 799 800 803 806 809 812 815 818 820 823 825 828 831 834 836 839 841 843 845 848 850 851 854 855 857 859 859 861 862 863 865 866 867 868 869 870 871 872 873 874 875 876 876 877 877 878 878 878 879 880 880 881 881 881 882 882 882 882 883 883 883 884 884 884 883 882 882 882 882 882 881 881 880 879 878 880 879 875 874 875 874 875 875
794 795 799 803 804 805 808 811 813 816 817 821 824 826 829 832 834 837 839 841 844 845 848 850 852 854 856 857 858 860 861 862 864 865 866 868 869 870 871 872 873 874 875 875 876 877 877 877 877 878 879 879 880 880 881 881 881 882 882 882 883 883 883 883 883 884 883 882 882 882 882 882 882 881 880 879 878 880 878 874 873 874 873 874 875
793 793 797 802 803 803 806 809 811 814 816 819 822 824 827 829 831 834 836 839 842 843 846 848 850 852 854 856 857 859 860 861 863 864 865 867 868 869 870 871 872 873 874 875 875 876 877 877 877 878 878 879 879 880 880 881 881 881 882 882 882 883 883 883 883 883 883 883 882 882 882 882 882 881 880 880 879 879 878 875 873 874 873 873 874
790 792 795 796 799 801 803 806 809 812 814 816 819 822 824 827 829 832 834 837 840 841 844 846 848 850 852 854 856 857 859 860 861 863 864 866 867 868 869 870 871 872 873 874 875 876 876 877 877 877 878 878 879 879 880 880 880 881 881 882 882 882 882 883 882 882 882 882 882 881 881 881 881 881 880 880 880 880 879 876 874 875 874 873 874
788 789 793 794 797 798 799 803 806 809 812 814 817 819 822 825 827 830 832 834 837 839 842 844 846 848 850 852 854 856 858 859 860 862 863 864 866 867 868 869 870 871 872 873 874 875 876 876 877 877 878 878 878 879 879 880 880 880 881 881 881 882 882 882 882 882 882 881 881 881 881 880 880 880 879 879 879 879 879 877 876 875 873 872 874
789 788 791 792 793 796 798 801 804 806 809 811 814 817 819 823 825 827 830 832 835 837 839 842 844 846 848 850 852 854 856 857 859 860 861 863 864 865 867 868 869 870 871 872 873 874 875 875 876 877 877 877 878 878 879 879 879 880 880 881 880 881 881 881 881 881 881 881 881 881 881 880 880 880 880 879 878 878 878 877 877 876 873 872 873
787 789 790 791 790 793 797 800 802 804 806 808 811 814 817 820 822 825 828 830 833 835 837 839 841 844 846 848 850 852 854 855 857 859 860 862 863 864 865 866 867 868 869 871 872 873 874 874 875 876 876 877 877 877 878 878 878 879 880 880 880 880 880 880 880 880 880 880 880 880 880 880 880 879 879 879 879 879 878 878 878 878 876 874 872
787 787 787 789 789 791 794 797 799 801 804 806 808 811 814 816 819 822 825 828 830 832 835 837 839 842 843 845 848 850 852 853 855 857 858 860 862 863 864 865 866 867 868 869 871 871 873 873 874 875 875 876 876 877 877 877 878 878 879 879 879 880 880 880 880 880 880 880 880 880 880 880 880 880 879 879 880 880 879 880 879 879 880 879 875
789 787 785 786 787 789 791 794 797 799 802 805 807 809 811 814 817 819 822 825 828 830 833 835 837 839 841 843 846 847 849 851 853 855 857 858 860 861 863 864 865 866 867 868 869 870 871 872 873 874 874 875 875 876 876 876 877 877 878 878 879 879 879 879 879 879 879 879 879 879 880 880 880 880 880 879 880 880 880 880 880 879 880 880 879
790 787 785 784 784 786 789 792 795 798 800 802 805 808 810 813 815 817 820 822 825 828 830 833 835 837 840 841 843 845 847 849 851 853 855 857 858 859 861 862 863 864 866 867 868 869 869 870 871 872 873 874 874 875 875 875 876 876 877 877 878 878 878 878 879 879 878 878 879 879 879 879 879 880 880 879 879 880 880 880 880 880 880 879 879
794 790 787 785 783 785 788 792 794 795 798 800 802 805 807 810 813 815 819 821 824 827 829 831 833 835 837 839 841 843 845 847 849 851 853 854 856 857 859 860 861 863 864 865 866 867 868 869 870 871 872 872 873 873 874 874 874 875 875 876 876 877 877 878 878 878 878 878 878 878 879 879 879 879 879 879 879 879 880 879 879 879 880 879 878
799 795 792 788 784 784 786 790 792 793 796 798 800 803 805 808 811 814 818 821 824 828 829 830 832 833 835 837 839 841 843 845 847 849 851 852 854 855 857 858 859 861 862 863 864 866 866 867 868 869 870 870 871 872 872 872 873 873 874 874 875 876 876 877 877 877 877 877 877 878 878 878 879 879 879 879 878 879 879 878 879 878 878 878 878
803 799 795 792 789 787 787 788 790 792 793 796 798 801 804 807 809 812 816 819 822 826 829 830 831 833 834 835 837 839 841 843 845 847 848 850 852 853 855 856 857 859 860 861 862 863 865 866 866 867 868 869 870 870 871 871 871 872 872 873 874 874 875 875 876 876 876 876 877 877 877 877 878 878 878 878 877 877 877 877 877 877 877 877 877
807 802 798 796 794 792 791 792 793 794 794 795 797 800 804 806 807 810 813 815 818 821 825 827 829 831 832 833 834 836 838 840 842 844 846 848 850 851 852 854 855 856 857 859 860 861 863 864 864 865 866 867 868 868 869 869 870 870 871 871 872 873 873 874 874 875 875 875 876 876 876 876 876 876 876 876 876 876 875 875 875 875 875 875 875
810 806 802 801 799 797 796 796 797 798 797 797 798 799 802 803 805 808 810 813 815 817 820 823 825 828 829 831 833 834 836 838 840 842 843 845 847 848 850 851 852 854 855 856 858 859 861 861 862 863 864 865 866 866 867 867 868 868 869 870 870 871 872 872 873 873 874 874 874 875 875 875 875 875 875 875 874 874 874 874 874 874 874 874 874
813 810 807 805 804 802 802 801 801 802 801 800 799 800 801 802 804 807 809 812 815 816 819 820 822 824 826 829 830 831 833 835 837 839 840 842 844 845 847 848 850 851 852 854 855 856 858 859 860 861 862 863 864 864 865 866 866 867 867 868 868 869 870 870 871 871 872 872 873 873 873 874 874 874 874 874 873 873 873 873 873 873 873 873 873
816 814 812 810 809 808 809 809 808 807 805 804 803 802 803 805 807 809 810 812 814 816 818 818 820 822 823 826 827 829 831 832 834 836 837 839 841 842 844 845 847 848 850 851 852 854 855 856 857 858 859 860 861 862 863 863 864 865 865 866 866 867 868 868 869 869 870 871 871 871 872 872 872 872 872 872 872 872 872 872 872 871 871 871 871
819 818 816 815 815 815 815 814 813 812 811 809 808 807 807 809 811 811 812 813 814 815 817 817 819 820 821 823 825 826 828 829 831 833 834 836 838 839 841 842 844 845 847 848 849 851 852 853 854 855 857 858 859 860 860 861 862 863 863 864 865 865 866 866 867 867 868 868 869 869 870 870 870 870 870 870 870 871 870 870 870 870 870 870 869
821 820 819 819 819 819 819 819 818 817 816 815 813 812 811 811 812 813 813 814 814 815 816 817 817 818 819 821 822 824 826 827 829 830 832 834 835 836 838 839 841 842 843 845 846 847 848 850 851 852 854 855 856 857 858 858 859 860 861 862 862 863 864 864 865 865 866 866 866 867 867 867 868 868 868 868 868 869 869 868 868 868 868 868 867
822 822 822 822 822 823 823 822 822 821 820 819 817 816 815 814 814 814 814 815 814 815 815 816 816 817 818 819 820 821 823 825 827 828 830 831 832 834 835 836 838 839 840 841 843 844 845 846 848 849 850 852 852 853 854 855 856 857 858 859 860 861 861 862 863 863 863 864 864 864 864 865 865 865 865 866 866 867 867 866 866 866 866 866 865
824 825 825 825 826 826 826 826 825 824 823 822 821 819 818 817 816 815 815 815 814 814 815 815 815 816 816 817 818 819 821 822 824 825 827 829 830 832 833 834 835 836 837 839 840 841 842 843 844 845 846 848 849 850 850 851 853 854 855 856 857 858 859 859 860 860 861 861 861 862 862 862 862 863 863 863 864 864 864 864 864 864 864 864 864
826 827 828 829 829 829 829 829 828 826 825 824 823 822 821 819 818 817 816 815 814 814 814 814 814 814 815 816 817 818 819 820 821 823 824 826 827 829 830 831 832 833 834 836 837 838 839 839 841 841 843 844 845 845 846 847 848 850 852 853 854 855 856 856 857 857 858 858 859 859 859 859 859 860 860 860 860 861 861 862 862 862 862 862 862
829 830 830 830 831 831 831 830 830 829 828 826 825 824 823 822 820 818 817 815 815 814 814 814 813 813 814 814 815 816 817 818 819 820 821 823 824 826 827 828 829 830 831 832 833 835 835 836 837 838 839 839 840 841 842 843 844 846 848 850 851 852 853 853 854 854 854 855 855 856 856 856 856 856 856 856 856 857 858 858 858 859 859 860 859
831 832 832 832 832 832 832 832 831 830 829 828 826 825 824 823 822 820 818 817 815 814 814 813 812 812 812 812 813 813 814 815 816 817 818 820 821 823 824 825 826 827 828 829 830 831 832 833 834 834 835 835 835 836 837 838 839 841 843 845 847 848 849 849 850 850 851 851 852 852 853 853 853 853 853 853 853 853 853 854 854 855 855 856 856
833 833 834 834 834 834 835 834 833 831 830 829 827 826 826 825 823 821 819 818 816 815 814 813 812 812 812 811 811 811 812 812 813 814 815 816 818 819 820 821 822 823 824 825 826 827 828 829 830 830 831 831 831 832 833 834 835 836 838 840 842 844 845 846 846 846 847 847 848 848 849 849 849 849 850 850 850 850 850 850 850 851 851 851 852
835 835 835 836 836 836 836 835 834 833 831 830 829 828 827 826 824 823 821 819 817 816 815 814 813 813 812 811 811 810 809 809 810 812 812 813 814 815 816 817 818 819 820 821 822 823 824 824 825 826 827 827 827 828 829 830 830 832 833 835 837 839 841 841 842 842 843 843 843 844 844 845 845 846 846 846 847 847 847 847 846 846 846 847 847
837 836 837 837 837 836 836 835 834 833 832 831 830 829 828 827 825 824 822 821 819 817 816 815 815 814 812 811 810 809 808 807 807 808 809 809 810 810 811 813 814 815 816 817 818 819 820 820 821 822 822 822 823 823 824 825 826 827 829 831 833 835 836 837 837 838 838 839 839 840 840 840 841 841 841 842 843 844 844 844 844 843 843 843 843
838 837 838 838 838 837 836 835 834 833 832 832 830 829 828 827 825 824 822 821 820 818 817 816 815 813 812 810 809 808 807 805 805 805 805 806 806 807 808 809 810 811 812 813 814 815 815 816 817 818 818 818 818 819 820 821 822 824 826 828 829 830 831 832 832 833 833 834 835 835 835 836 836 836 836 837 839 840 841 841 841 840 840 840 839
838 838 838 838 838 838 837 836 835 833 832 831 830 830 829 827 825 824 822 821 820 819 818 816 815 813 812 810 809 808 806 804 803 803 802 802 803 803 805 806 807 808 808 809 810 811 812 812 813 814 814 814 814 814 816 817 818 820 822 824 825 826 827 827 827 828 828 829 830 830 830 831 831 831 831 833 834 836 837 837 837 837 837 836 835
838 838 837 837 837 837 837 836 834 833 833 832 831 829 828 827 825 823 822 820 819 818 817 816 815 814 812 810 809 808 807 805 803 802 801 801 801 802 803 804 805 805 805 806 806 807 808 808 809 809 810 810 810 810 811 812 814 816 818 819 820 822 823 823 823 823 824 824 824 824 825 826 826 826 827 829 830 832 833 833 834 834 833 832 832
838 837 836 836 837 837 836 835 833 832 832 832 830 829 828 826 825 824 822 820 818 817 816 815 815 813 812 811 809 808 807 804 802 801 800 801 802 803 803 804 805 804 804 804 804 804 804 805 805 805 806 806 806 806 807 808 809 811 813 814 816 818 818 818 818 819 819 819 819 819 819 820 820 821 823 824 826 827 828 829 830 830 829 828 828
839 838 837 836 836 835 834 833 833 832 831 831 830 829 827 826 825 823 822 820 818 817 816 815 814 813 812 811 809 808 806 804 802 801 800 801 802 802 802 804 804 804 804 804 803 802 801 801 802 802 802 802 802 802 803 803 804 806 807 809 811 812 812 813 814 814 815 814 814 814 814 813 814 815 817 819 821 823 824 825 826 826 825 824 825
839 838 838 837 835 834 833 832 832 831 830 830 829 827 827 826 824 823 821 820 818 817 816 815 813 812 811 810 808 807 805 803 802 801 800 800 800 800 799 799 800 800 800 801 801 800 799 799 799 798 798 798 798 798 798 799 799 801 802 804 806 806 806 808 810 810 810 810 809 809 809 808 809 809 811 814 816 818 819 821 822 821 821 822 823
837 837 838 837 835 833 832 831 831 830 829 828 827 826 826 825 823 822 820 819 818 817 815 814 812 810 809 808 807 806 804 803 801 800 799 798 798 798 797 797 798 797 796 796 796 796 796 796 795 795 794 794 794 794 794 795 795 796 797 798 800 800 802 805 806 805 805 805 804 805 805 805 806 806 807 810 812 814 815 815 816 816 817 819 821
836 836 836 835 835 833 831 830 829 829 828 827 826 825 824 823 822 821 820 818 817 816 814 812 811 809 808 806 805 804 803 802 801 800 798 797 795 795 794 795 796 795 793 793 792 792 792 792 791 790 790 790 790 790 790 790 790 791 792 793 794 795 797 800 801 801 800 800 801 801 802 803 804 804 805 807 809 810 810 810 811 812 814 815 817
834 834 834 834 834 833 831 829 828 827 827 826 825 824 822 821 820 819 818 817 816 814 813 811 809 808 806 805 804 803 802 801 800 798 796 795 794 793 792 792 792 791 790 790 789 789 789 788 787 786 785 784 785 785 785 785 785 786 787 788 789 791 793 796 797 796 796 797 798 799 800 801 802 802 803 804 805 806 806 806 807 808 810 812 813
833 833 832 832 832 830 830 828 826 826 825 824 823 822 820 818 818 817 816 815 814 813 811 809 808 807 805 803 802 801 799 798 798 797 795 792 792 791 790 789 789 788 787 786 785 785 784 783 782 781 779 779 780 781 781 781 781 782 782 783 784 786 788 790 792 792 793 795 796 798 799 800 800 800 801 801 801 801 802 802 803 805 806 808 809
833 831 831 830 829 828 827 826 824 824 823 822 821 820 817 816 816 815 814 813 812 810 809 808 806 805 803 802 800 798 797 796 795 794 792 790 789 788 787 786 785 785 784 782 781 780 779 778 777 776 775 776 777 778 779 778 777 777 777 779 780 781 783 786 788 789 791 793 795 796 797 798 798 798 798 798 798 798 798 799 800 801 802 803 804
832 831 830 829 828 826 825 824 822 822 821 820 819 817 815 814 813 812 812 811 809 808 806 805 804 802 801 800 798 796 795 793 792 791 789 787 786 785 783 782 782 781 780 778 777 776 774 774 773 773 774 774 774 775 776 776 775 774 773 774 776 777 779 783 785 787 790 792 793 794 794 795 795 795 794 794 794 794 795 795 795 796 797 797 799
831 830 829 827 826 824 823 822 820 819 818 818 816 815 813 812 811 810 809 808 807 805 804 802 801 800 798 797 795 794 792 790 789 787 786 785 784 782 780 778 778 777 777 775 773 772 772 773 773 774 775 776 774 771 770 771 772 772 771 770 771 773 775 779 784 787 789 790 790 790 790 790 791 790 790 790 790 790 790 791 791 791 791 792 793
829 828 827 825 824 822 821 819 818 817 816 815 813 812 811 810 808 808 807 805 804 802 801 799 798 796 795 794 792 791 789 788 786 785 784 783 782 780 779 776 774 774 774 772 771 770 771 772 772 772 774 776 773 769 767 768 770 771 771 769 768 770 773 777 781 785 785 783 783 785 785 785 785 785 785 785 785 785 785 786 786 787 787 787 788
826 825 824 823 821 819 818 816 815 814 813 811 810 809 808 807 806 804 804 802 801 799 798 796 795 793 792 791 789 788 787 786 784 782 781 780 778 777 776 774 772 771 770 769 768 767 768 770 770 769 770 771 769 766 765 765 767 769 770 769 767 768 770 772 776 779 779 777 777 778 779 779 780 780 779 779 779 779 779 780 781 781 782 782 782
823 821 820 819 818 817 816 814 812 811 810 808 807 805 804 803 802 801 801 799 798 797 795 793 791 790 789 788 787 786 785 783 782 780 779 777 775 773 772 770 769 767 765 765 764 764 764 766 766 765 764 764 763 762 761 761 762 764 766 766 765 765 765 768 772 775 775 773 772 773 774 774 775 775 774 773 773 773 773 774 775 775 776 776 777